Flag for U.S.A. Weather past 2 weeks in Cape Canaveral, Florida, U.S.A.

Now
76 °F

Clear.


Feels Like: 75 °F
Forecast: 77 / 92 °F
Wind: 2 mph from Southwest

Location: Cape Kennedy

Current Time: Aug 23, 2014 at 6:17:49 AM

Latest Report: Aug 23, 2014 at 5:58 AM


Visibility: 10 mi

Pressure: 29.97 "Hg

Humidity: 95%

Dew point: 74 °F

Location of Cape CanaveralLocation

Historic Weather in Cape Canaveral — Graph

°F

Cape Canaveral temperature yesterday

Maximum temperature yesterday: 91 °F (at 1:58 PM)
Minimum temperature yesterday: 77 °F (at 6:58 AM)
Average temperature yesterday: 83 °F

Past Weeks' High & Low Weather Summary

 TemperatureHumidityPressure
High94 °F (Aug 12, 3:58 PM)100% (Aug 15, 5:02 PM)30.14 "Hg (Aug 15, 5:02 PM)
Low72 °F (Aug 8, 5:58 AM)44% (Aug 12, 3:58 PM)29.94 "Hg (Aug 12, 4:58 PM)
Average81 °F82%30.03 "Hg
* Reported Aug 8 4:58 AM — Aug 23 4:58 AM, Cape Canaveral, Weather by CustomWeather, © 2014

Note: Actual official high and low records may vary slightly from our data, if they occured in-between our weather recording intervals... More about our weather records

Advertising

Cape Canaveral weather history for previous 24 hours

 ConditionsComfort  
Time TempWeatherWind HumidityBarometerVisibility
4:58 AM
Aug 23
78 °FClear.5 mph92%29.96 "Hg10 mi
3:58 AM78 °FClear.5 mph91%29.97 "Hg10 mi
2:58 AM78 °FClear.5 mph92%29.98 "Hg10 mi
2:03 AM77 °FClear.2 mph94%29.98 "Hg10 mi
1:58 AM77 °FClear.3 mph91%29.99 "Hg9 mi
12:58 AM77 °FFog.5 mph94%30.01 "Hg4 mi
12:03 AM79 °FFog.3 mph89%30.01 "Hg4 mi
10:58 PM
Aug 22
80 °FClear.6 mph87%30.02 "Hg3 mi
9:58 PM80 °FClear.3 mph91%30.02 "Hg10 mi
8:58 PM80 °FClear.2 mph89%30.01 "Hg10 mi
7:58 PM83 °FSunny.2 mph82%30.01 "Hg10 mi
6:58 PM86 °FSunny.7 mph73%30.00 "Hg10 mi
5:58 PM88 °FSunny.10 mph66%30.00 "Hg10 mi
4:58 PM90 °FSunny.9 mph59%30.01 "Hg10 mi
3:58 PM90 °FSunny.8 mph60%30.02 "Hg10 mi
2:58 PM91 °FSunny.7 mph62%30.04 "Hg10 mi
1:58 PM91 °FSunny.6 mph63%30.06 "Hg10 mi
12:58 PM89 °FSunny.7 mph68%30.07 "Hg10 mi
11:58 AM89 °FPassing clouds.6 mph66%30.08 "Hg10 mi
10:58 AM87 °FSunny.5 mph71%30.09 "Hg10 mi
9:58 AM86 °FSunny.5 mph71%30.09 "Hg10 mi
8:58 AM84 °FSunny.2 mph84%30.08 "Hg10 mi
7:58 AM78 °FSunny.2 mph93%30.08 "Hg10 mi
6:58 AM77 °FClear.2 mph95%30.07 "Hg10 mi
Weather by CustomWeather, © 2014

See weather overviewHow to use our weather pages